#timestamp,LO_Frequency,Hit,StdDev 
1509138015.8,286046994.0,N
1509138035.6,286046993.2,N
1509138055.4,286046989.4,N
1509138075.3,286046987.3,N
1509138095.1,286046989.7,N
1509138115.8,286046990.8,N
1509138135.7,286046992.7,N
1509138155.5,286046993.3,N
1509138175.3,286046997.3,N
1509138195.2,286046997.4,N
1509138215.9,286046997.2,N
1509138235.7,286046995.4,N
1509138255.6,286046997.1,N
1509138275.4,286047001.2,N
1509138295.2,286046996.9,N
1509138315.1,286046999.4,N
1509138316.0,286046999.4,N
1509138335.8,286046996.7,N
1509138355.6,286046999.9,N
1509138375.5,286046999.9,N
1509138395.3,286046996.6,N
1509138415.1,286046998.7,N
1509138435.9,286047002.8,N
1509138455.7,286047000.0,N
1509138475.5,286046998.6,N
1509138495.4,286046996.5,N
1509138515.2,286046997.0,N
1509138535.0,286046999.0,N
1509138535.9,286046999.0,N
1509138555.8,286046997.2,N
1509138575.6,286046995.4,N
1509138595.4,286046999.6,N
1509138615.3,286046996.4,N
1509138635.1,286046995.0,N
1509138655.8,286046996.0,N
1509138675.7,286046991.8,Y
1509138695.5,286046995.1,P
1509138715.4,286046993.3,P
1509138735.2,286046993.5,P
1509138755.0,286046992.8,Y
1509138755.9,286046992.8,P
1509138775.8,286046997.3,N
1509138795.6,286046997.1,N
1509138815.4,286046997.7,N
1509138835.3,286046997.2,N
1509138855.1,286047001.1,N
1509138875.8,286046999.6,N
1509138895.7,286046999.3,N
1509138915.5,286047000.9,N
1509138935.3,286046996.5,N
1509138955.2,286046997.5,N
1509138975.0,286046996.6,N
1509138975.9,286046996.6,N
1509138995.8,286046995.7,N
1509139015.6,286046996.4,N
1509139035.4,286046993.7,Y
1509139055.3,286046999.2,P
1509139075.1,286046994.9,P
1509139076.0,286046994.9,N
1509139095.8,286046993.8,Y
1509139115.7,286046992.4,P
1509139135.5,286046989.2,P
1509139155.3,286046987.7,P
1509139175.2,286046991.5,N
1509139195.0,286046989.2,Y
1509139195.9,286046989.2,P
1509139215.8,286046997.1,N
1509139235.6,286046996.1,N
1509139255.4,286046994.2,N
1509139275.3,286046996.4,N
1509139295.1,286046993.4,N
1509139296.0,286046993.4,N
1509139315.8,286046992.6,N
1509139335.7,286046991.8,Y
1509139355.5,286047000.8,P
1509139375.3,286046998.1,N
1509139395.2,286047000.5,N
1509139415.0,286047000.3,N
1509139415.9,286047000.3,N
1509139435.7,286047001.1,N
1509139455.6,286047004.3,N
1509139475.4,286047004.1,N
1509139495.2,286047001.4,N
1509139515.1,286047000.1,N
1509139516.0,286047000.1,N
1509139535.8,286046999.1,N
1509139555.7,286046994.9,N
1509139575.5,286046998.9,N
1509139595.3,286047001.5,N
1509139615.2,286047003.8,N
1509139635.9,286046999.7,N
1509139655.7,286046999.4,N
1509139675.6,286046998.0,N
1509139695.4,286046995.5,N
1509139715.2,286046997.7,N
1509139735.1,286046997.3,N
1509139736.0,286046997.3,N
1509139755.8,286046996.7,N
1509139775.6,286047000.5,N
1509139795.5,286047000.1,N
1509139815.3,286047000.9,N
1509139835.1,286046999.6,N
1509139855.9,286046996.8,N
1509139875.7,286046995.1,N
1509139895.5,286046994.5,N
1509139915.4,286046992.0,Y
1509139935.2,286046993.4,P
1509139955.0,286046996.0,N
1509139955.9,286046996.0,N
1509139975.8,286047000.2,N
1509139995.6,286046999.7,N
1509140015.4,286047001.4,N
1509140035.3,286047008.8,Y
1509140055.1,286047011.1,P
1509140075.9,286047014.8,N
1509140095.7,286047016.6,N
1509140115.5,286047020.1,N
1509140135.4,286047020.6,N
1509140155.2,286047024.8,Y
1509140175.0,286047008.1,P
1509140175.9,286047008.1,N
1509140195.8,286047006.1,N
1509140215.6,286047007.2,N
1509140235.4,286047007.9,Y
1509140255.3,286046999.7,P
1509140275.1,286046999.7,N
1509140295.9,286047003.6,N
1509140315.7,286047003.2,N
1509140335.5,286047003.6,N
1509140355.3,286047002.2,N
1509140375.2,286047004.1,N
1509140395.0,286047005.6,N
1509140395.9,286047005.6,N
1509140415.8,286047002.2,N
1509140435.6,286046996.5,N
1509140455.4,286046999.5,N
1509140475.3,286046996.5,N
1509140495.1,286046993.7,N
1509140496.0,286046993.7,N
1509140515.8,286046996.5,N
1509140535.7,286047001.6,N
1509140555.5,286047001.9,N
1509140575.3,286046996.8,N
1509140595.2,286046999.3,N
1509140615.9,286046995.1,N
1509140635.7,286046995.6,N
1509140655.6,286046991.7,N
1509140675.4,286046988.6,N
1509140695.2,286046993.0,N
1509140715.1,286046994.4,N
1509140716.0,286046994.4,N
1509140735.8,286046994.7,N
1509140755.6,286046990.4,N
1509140775.5,286046988.7,N
1509140795.3,286046987.3,N
1509140815.1,286046988.7,N
1509140835.9,286046987.5,N
1509140855.7,286046985.3,N
1509140875.5,286046985.8,N
1509140895.4,286046986.5,N
1509140915.2,286046987.2,N
1509140935.0,286046991.3,N
1509140935.9,286046991.3,N
1509140955.8,286046991.2,N
1509140975.6,286046987.5,N
1509140995.4,286046991.6,N
1509141015.3,286046986.9,N
1509141035.1,286046985.6,Y
1509141055.9,286046996.3,P
1509141075.7,286046994.0,N
1509141095.5,286046996.0,N
1509141115.4,286046996.1,N
1509141135.2,286046994.0,Y
1509141155.0,286047000.4,P
1509141155.9,286047000.4,N
1509141175.8,286047000.2,N
1509141195.6,286047001.3,N
1509141215.4,286046999.9,N
1509141235.3,286046998.5,N
1509141255.1,286046998.9,N
1509141275.8,286046998.6,N
1509141295.7,286046997.7,N
1509141315.5,286046998.2,N
1509141335.3,286046997.0,N
1509141355.2,286046998.3,N
1509141375.0,286046996.9,N
1509141375.9,286046996.9,N
1509141395.7,286046999.2,N
1509141415.6,286047000.7,N
1509141435.4,286047000.9,N
1509141455.2,286047002.7,N
1509141475.1,286046998.4,N
1509141476.0,286046998.4,N
1509141495.8,286046999.3,N
1509141515.7,286047001.0,N
1509141535.5,286046998.8,N
1509141555.3,286046996.5,N
1509141575.2,286046995.2,N
1509141595.9,286046995.7,N
